Retour au catalogue

ATLAS 5 CENTAUR DEB

LostHEO
NORAD 43971·DEBRIS·🇺🇸 United States

Lancé Sep 17, 2014 depuis Cape Canaveral Space Force Station

Loading…

Prochains Passages (prochaines 24 heures)

TLE

PériméSource: Space-Track

Époque: Oct 30, 2024, 10:03 UTC

1 43971U 14055AA  24304.41942266 -.00000061  00000-0  00000+0 0  9993
2 43971  19.8828 213.9990 4721697  46.4486 344.1621  1.85585364 41723

Suivez ATLAS 5 CENTAUR DEB en temps réel avec AllMySat

Download on the App Store